| time (UTC) | temp F | wind direction | speed knots | gust knots | rain 1hr in | rain 24hr in | rain mn in | humidity % | barometer mb |
| 20260510174816 | 65 | 334 | 5.2 | 7.0 | 0.00 | 0.07 | 0.07 | 41 | |
| 20260510174314 | 66 | 49 | 6.1 | 11.3 | 0.00 | 0.07 | 0.07 | 40 | |
| 20260510173810 | 65 | 54 | 6.1 | 7.8 | 0.00 | 0.07 | 0.07 | 41 | |
| 20260510173306 | 65 | 85 | 3.5 | 5.2 | 0.00 | 0.07 | 0.07 | 41 | |
| 20260510172802 | 65 | 65 | 6.1 | 7.0 | 0.00 | 0.07 | 0.07 | 41 | |
| 20260510172258 | 65 | 79 | 4.3 | 6.1 | 0.00 | 0.07 | 0.07 | 39 | |
| 20260510171755 | 65 | 12 | 7.8 | 9.6 | 0.00 | 0.07 | 0.07 | 43 | |
| 20260510171252 | 65 | 15 | 7.8 | 8.7 | 0.00 | 0.07 | 0.07 | 43 | |
| 20260510170749 | 65 | 45 | 3.5 | 3.5 | 0.00 | 0.07 | 0.07 | 41 | |
| 20260510170245 | 64 | 15 | 7.8 | 9.6 | 0.00 | 0.07 | 0.07 | 46 | |
| 20260510165740 | 65 | 33 | 7.8 | 9.6 | 0.00 | 0.07 | 0.07 | 42 | |
| 20260510165237 | 64 | 25 | 2.6 | 3.5 | 0.00 | 0.07 | 0.07 | 41 | |
| 20260510164734 | 64 | 45 | 4.3 | 6.1 | 0.00 | 0.07 | 0.07 | 44 | |
| 20260510164232 | 64 | 21 | 7.0 | 13.0 | 0.00 | 0.07 | 0.07 | 39 | |
| 20260510163731 | 64 | 70 | 1.7 | 6.1 | 0.00 | 0.07 | 0.07 | 41 | |
| 20260510163228 | 64 | 55 | 6.1 | 7.8 | 0.00 | 0.07 | 0.07 | 46 | |
| 20260510162727 | 64 | 20 | 5.2 | 8.7 | 0.00 | 0.07 | 0.07 | 41 | |
| 20260510162225 | 64 | 44 | 3.5 | 5.2 | 0.00 | 0.07 | 0.07 | 48 | |
| 20260510161721 | 64 | 46 | 3.5 | 7.8 | 0.00 | 0.07 | 0.07 | 45 | |
| 20260510161217 | 64 | 79 | 3.5 | 3.5 | 0.00 | 0.07 | 0.07 | 46 | |
| 20260510160714 | 63 | 53 | 6.1 | 8.7 | 0.00 | 0.07 | 0.07 | 52 | |
| 20260510160209 | 63 | 73 | 4.3 | 6.1 | 0.00 | 0.07 | 0.07 | 49 | |
| 20260510155706 | 63 | 104 | 2.6 | 5.2 | 0.00 | 0.07 | 0.07 | 49 | |
| 20260510155202 | 63 | 38 | 4.3 | 9.6 | 0.00 | 0.07 | 0.07 | 46 | |
| 20260510154657 | 63 | 72 | 1.7 | 5.2 | 0.00 | 0.07 | 0.07 | 51 | |
| 20260510154153 | 63 | 67 | 3.5 | 6.1 | 0.00 | 0.07 | 0.07 | 50 | |
| 20260510153648 | 62 | 72 | 4.3 | 7.0 | 0.00 | 0.07 | 0.07 | 46 | |
| 20260510153145 | 62 | 64 | 7.8 | 9.6 | 0.00 | 0.07 | 0.07 | 46 | |
| 20260510152642 | 62 | 42 | 2.6 | 3.5 | 0.00 | 0.07 | 0.07 | 54 | |
| 20260510152138 | 62 | 53 | 7.8 | 8.7 | 0.00 | 0.07 | 0.07 | 55 | |
| 20260510151634 | 61 | 63 | 5.2 | 7.0 | 0.00 | 0.07 | 0.07 | 50 | |
| 20260510151133 | 61 | 68 | 6.1 | 7.8 | 0.00 | 0.07 | 0.07 | 52 | |
| 20260510150628 | 61 | 62 | 7.0 | 9.6 | 0.00 | 0.07 | 0.07 | 51 | |
| 20260510150124 | 61 | 87 | 2.6 | 9.6 | 0.00 | 0.07 | 0.07 | 51 | |
| 20260510145620 | 61 | 63 | 7.0 | 9.6 | 0.00 | 0.07 | 0.07 | 52 | |
| 20260510145117 | 60 | 80 | 3.5 | 7.8 | 0.00 | 0.07 | 0.07 | 56 | |
| 20260510144613 | 60 | 58 | 5.2 | 7.8 | 0.00 | 0.07 | 0.07 | 55 | |
| 20260510144109 | 60 | 53 | 7.8 | 9.6 | 0.00 | 0.07 | 0.07 | 54 | |
| 20260510143605 | 60 | 50 | 9.6 | 12.2 | 0.00 | 0.07 | 0.07 | 54 | |
| 20260510143101 | 60 | 55 | 10.4 | 13.0 | 0.00 | 0.07 | 0.07 | 52 | |
| 20260510142558 | 60 | 46 | 7.8 | 13.0 | 0.00 | 0.07 | 0.07 | 55 | |
| 20260510142055 | 60 | 57 | 10.4 | 11.3 | 0.00 | 0.07 | 0.07 | 59 | |
| 20260510141552 | 59 | 51 | 8.7 | 12.2 | 0.00 | 0.07 | 0.07 | 61 | |
| 20260510141050 | 59 | 49 | 7.8 | 11.3 | 0.00 | 0.07 | 0.07 | 63 | |
| 20260510140545 | 59 | 56 | 6.1 | 13.9 | 0.00 | 0.07 | 0.07 | 64 | |
| 20260510140045 | 59 | 47 | 10.4 | 13.0 | 0.00 | 0.07 | 0.07 | 64 | |
| 20260510135541 | 58 | 36 | 7.8 | 13.0 | 0.00 | 0.07 | 0.07 | 63 | |
| 20260510135037 | 58 | 40 | 8.7 | 13.9 | 0.00 | 0.07 | 0.07 | 64 | |
| 20260510134534 | 58 | 53 | 7.0 | 8.7 | 0.00 | 0.07 | 0.07 | 67 | |
| 20260510134031 | 58 | 46 | 7.8 | 9.6 | 0.00 | 0.07 | 0.07 | 68 | |
| 20260510133527 | 57 | 43 | 6.1 | 7.8 | 0.00 | 0.07 | 0.07 | 68 | |
| 20260510133023 | 57 | 61 | 6.1 | 8.7 | 0.00 | 0.07 | 0.07 | 68 | |
| 20260510132520 | 57 | 34 | 6.1 | 9.6 | 0.00 | 0.07 | 0.07 | 68 | |
| 20260510132017 | 57 | 28 | 9.6 | 9.6 | 0.00 | 0.07 | 0.07 | 67 | |
| 20260510131515 | 57 | 34 | 5.2 | 7.8 | 0.00 | 0.07 | 0.07 | 68 | |
| 20260510131012 | 56 | 23 | 7.0 | 8.7 | 0.00 | 0.07 | 0.07 | 69 | |
| 20260510130508 | 56 | 37 | 5.2 | 9.6 | 0.00 | 0.07 | 0.07 | 69 | |
| 20260510130006 | 56 | 36 | 7.0 | 8.7 | 0.00 | 0.07 | 0.07 | 68 | |
| 20260510125501 | 56 | 13 | 7.8 | 8.7 | 0.00 | 0.07 | 0.07 | 68 | |
| 20260510124958 | 55 | 25 | 6.1 | 9.6 | 0.00 | 0.07 | 0.07 | 69 | |
| 20260510124454 | 55 | 34 | 7.8 | 8.7 | 0.00 | 0.07 | 0.07 | 67 | |
| 20260510123952 | 55 | 31 | 8.7 | 9.6 | 0.00 | 0.07 | 0.07 | 68 | |
| 20260510123447 | 55 | 35 | 6.1 | 8.7 | 0.00 | 0.07 | 0.07 | 68 | |
| 20260510122943 | 55 | 29 | 7.0 | 8.7 | 0.00 | 0.07 | 0.07 | 68 | |
| 20260510122439 | 55 | 44 | 5.2 | 9.6 | 0.00 | 0.07 | 0.07 | 68 | |
| 20260510121935 | 55 | 28 | 6.1 | 7.8 | 0.00 | 0.07 | 0.07 | 71 | |
| 20260510121432 | 55 | 32 | 7.8 | 8.7 | 0.00 | 0.07 | 0.07 | 68 | |
| 20260510120930 | 55 | 36 | 7.0 | 7.8 | 0.00 | 0.07 | 0.07 | 70 | |
| 20260510120427 | 54 | 35 | 6.1 | 8.7 | 0.00 | 0.07 | 0.07 | 71 | |
| 20260510115923 | 54 | 22 | 7.0 | 7.8 | 0.00 | 0.07 | 0.07 | 71 | |
| 20260510115420 | 54 | 17 | 7.0 | 7.8 | 0.00 | 0.07 | 0.07 | 71 | |
| 20260510114916 | 54 | 28 | 7.0 | 7.8 | 0.00 | 0.07 | 0.07 | 72 | |
| 20260510114414 | 54 | 22 | 7.0 | 7.0 | 0.00 | 0.07 | 0.07 | 72 | |
| 20260510113914 | 53 | 35 | 6.1 | 7.0 | 0.00 | 0.07 | 0.07 | 73 | |
| 20260510113410 | 53 | 15 | 6.1 | 7.0 | 0.00 | 0.07 | 0.07 | 72 | |
| 20260510112907 | 54 | 13 | 7.0 | 7.0 | 0.00 | 0.07 | 0.07 | 72 | |
| 20260510112404 | 54 | 26 | 5.2 | 7.0 | 0.00 | 0.07 | 0.07 | 70 | |
| 20260510111900 | 54 | 6 | 6.1 | 8.7 | 0.00 | 0.07 | 0.07 | 68 | |
| 20260510111357 | 53 | 11 | 7.0 | 8.7 | 0.00 | 0.07 | 0.07 | 70 | |
| 20260510110852 | 53 | 15 | 5.2 | 7.8 | 0.00 | 0.07 | 0.07 | 72 | |
| 20260510110349 | 53 | 33 | 5.2 | 7.0 | 0.00 | 0.07 | 0.07 | 72 | |
| 20260510105845 | 54 | 22 | 4.3 | 6.1 | 0.00 | 0.07 | 0.07 | 71 | |
| 20260510105345 | 54 | 6 | 5.2 | 7.0 | 0.00 | 0.07 | 0.07 | 70 | |
| 20260510104841 | 54 | 18 | 7.0 | 7.8 | 0.00 | 0.07 | 0.07 | 68 | |
| 20260510104338 | 54 | 15 | 5.2 | 7.8 | 0.00 | 0.07 | 0.07 | 69 | |
| 20260510103834 | 54 | 0 | 4.3 | 7.0 | 0.00 | 0.07 | 0.07 | 71 | |
| 20260510103331 | 54 | 25 | 3.5 | 3.5 | 0.00 | 0.07 | 0.07 | 71 | |
| 20260510102827 | 54 | 36 | 3.5 | 3.5 | 0.00 | 0.07 | 0.07 | 71 | |
| 20260510102323 | 55 | 19 | 4.3 | 6.1 | 0.00 | 0.07 | 0.07 | 70 | |
| 20260510101820 | 55 | 27 | 4.3 | 6.1 | 0.00 | 0.07 | 0.07 | 69 | |
| 20260510101318 | 55 | 356 | 6.1 | 7.0 | 0.00 | 0.07 | 0.07 | 70 | |
| 20260510100814 | 55 | 1 | 3.5 | 5.2 | 0.00 | 0.07 | 0.07 | 70 | |
| 20260510100312 | 55 | 335 | 4.3 | 6.1 | 0.00 | 0.07 | 0.07 | 69 | |
| 20260510095808 | 55 | 352 | 4.3 | 6.1 | 0.00 | 0.07 | 0.07 | 69 | |
| 20260510095305 | 56 | 51 | 4.3 | 5.2 | 0.00 | 0.07 | 0.07 | 69 | |
| 20260510094802 | 56 | 9 | 5.2 | 7.0 | 0.00 | 0.07 | 0.07 | 68 | |
| 20260510094257 | 56 | 17 | 6.1 | 7.8 | 0.00 | 0.07 | 0.07 | 69 | |
| 20260510093754 | 56 | 25 | 7.8 | 7.8 | 0.00 | 0.07 | 0.07 | 68 | |
| 20260510093251 | 56 | 30 | 7.8 | 11.3 | 0.00 | 0.07 | 0.07 | 67 | |
| 20260510092747 | 56 | 18 | 10.4 | 13.0 | 0.00 | 0.07 | 0.07 | 68 | |
| 20260510092243 | 56 | 18 | 8.7 | 12.2 | 0.00 | 0.07 | 0.07 | 69 | |
| 20260510091738 | 56 | 5 | 7.8 | 9.6 | 0.00 | 0.07 | 0.07 | 70 | |
| 20260510091236 | 56 | 31 | 9.6 | 11.3 | 0.00 | 0.07 | 0.07 | 70 | |
| 20260510090732 | 57 | 27 | 9.6 | 11.3 | 0.00 | 0.07 | 0.07 | 69 | |
| 20260510090230 | 57 | 24 | 9.6 | 11.3 | 0.00 | 0.07 | 0.07 | 69 | |
| 20260510085725 | 56 | 28 | 9.6 | 11.3 | 0.00 | 0.07 | 0.07 | 69 | |
| 20260510085219 | 56 | 29 | 6.1 | 7.8 | 0.00 | 0.07 | 0.07 | 72 | |
| 20260510084716 | 56 | 29 | 6.1 | 7.0 | 0.00 | 0.07 | 0.07 | 72 | |
| 20260510084213 | 56 | 26 | 6.1 | 7.0 | 0.00 | 0.07 | 0.07 | 73 | |
| 20260510083710 | 57 | 23 | 6.1 | 6.1 | 0.00 | 0.07 | 0.07 | 72 | |
| 20260510083207 | 57 | 61 | 4.3 | 6.1 | 0.00 | 0.07 | 0.07 | 72 | |
| 20260510082702 | 57 | 19 | 5.2 | 6.1 | 0.00 | 0.07 | 0.07 | 72 | |
| 20260510082158 | 57 | 20 | 6.1 | 7.8 | 0.00 | 0.07 | 0.07 | 71 | |
| 20260510081653 | 57 | 1 | 6.1 | 7.0 | 0.00 | 0.07 | 0.07 | 72 | |
| 20260510081149 | 57 | 11 | 6.1 | 7.0 | 0.00 | 0.07 | 0.07 | 73 | |
| 20260510080648 | 57 | 23 | 6.1 | 7.8 | 0.00 | 0.07 | 0.07 | 73 | |
| 20260510080146 | 57 | 13 | 7.0 | 8.7 | 0.00 | 0.07 | 0.07 | 74 | |
| 20260510075642 | 57 | 5 | 6.1 | 7.8 | 0.00 | 0.07 | 0.07 | 77 | |
| 20260510075140 | 58 | 15 | 5.2 | 7.8 | 0.00 | 0.07 | 0.07 | 76 | |
| 20260510074637 | 58 | 358 | 5.2 | 7.0 | 0.00 | 0.07 | 0.07 | 77 | |
| 20260510074132 | 57 | 14 | 5.2 | 7.0 | 0.00 | 0.07 | 0.07 | 77 | |
| 20260510073629 | 57 | 37 | 3.5 | 5.2 | 0.00 | 0.07 | 0.07 | 77 | |
| 20260510073125 | 57 | 67 | 3.5 | 6.1 | 0.00 | 0.07 | 0.07 | 77 | |
| 20260510072622 | 57 | 93 | 2.6 | 3.5 | 0.00 | 0.07 | 0.07 | 80 | |
| 20260510072118 | 57 | 95 | 2.6 | 2.6 | 0.00 | 0.07 | 0.07 | 81 | |
| 20260510071614 | 57 | 88 | 2.6 | 2.6 | 0.00 | 0.07 | 0.07 | 81 | |
| 20260510071112 | 58 | 107 | 1.7 | 2.6 | 0.00 | 0.07 | 0.07 | 76 | |
| 20260510070609 | 58 | 122 | 0.9 | 1.7 | 0.00 | 0.07 | 0.07 | 73 | |
| 20260510070107 | 58 | 142 | 0.0 | 0.0 | 0.00 | 0.07 | 0.07 | 74 | |
| 20260510065602 | 58 | 159 | 0.0 | 0.0 | 0.00 | 0.07 | 0.07 | 74 | |
| 20260510065058 | 58 | 136 | 0.0 | 0.0 | 0.00 | 0.07 | 0.07 | 73 | |
| 20260510064555 | 58 | 127 | 0.9 | 0.9 | 0.00 | 0.07 | 0.07 | 74 | |
| 20260510064052 | 58 | 140 | 0.0 | 0.0 | 0.00 | 0.07 | 0.07 | 75 | |
| 20260510063549 | 58 | 141 | 0.0 | 0.0 | 0.00 | 0.07 | 0.07 | 74 | |
| 20260510063046 | 58 | 141 | 0.0 | 0.0 | 0.00 | 0.07 | 0.07 | 76 | |
| 20260510062542 | 58 | 145 | 0.0 | 0.0 | 0.00 | 0.07 | 0.07 | 76 | |
| 20260510062037 | 57 | 169 | 0.0 | 0.0 | 0.00 | 0.07 | 0.07 | 80 | |
| 20260510061534 | 57 | 154 | 0.0 | 0.0 | 0.00 | 0.07 | 0.07 | 80 | |
| 20260510061030 | 57 | 153 | 0.0 | 0.0 | 0.00 | 0.07 | 0.07 | 81 | |
| 20260510060527 | 57 | 167 | 0.0 | 0.0 | 0.00 | 0.07 | 0.07 | 81 | |
| 20260510060023 | 57 | 164 | 0.0 | 0.9 | 0.00 | 0.07 | 0.07 | 82 | |
| 20260510055519 | 57 | 178 | 1.7 | 1.7 | 0.00 | 0.07 | 0.07 | 83 | |
| 20260510055018 | 57 | 183 | 1.7 | 1.7 | 0.00 | 0.07 | 0.07 | 81 | |
| 20260510054513 | 57 | 188 | 3.5 | 3.5 | 0.07 | 0.07 | 0.07 | 80 | |
| 20260510054008 | 58 | 239 | 3.5 | 3.5 | 0.19 | 0.07 | 0.07 | 79 | |
| 20260510053503 | 58 | 268 | 6.1 | 8.7 | 0.17 | 0.06 | 0.06 | 76 | |
| 20260510053000 | 59 | 252 | 6.1 | 7.0 | 0.12 | 0.04 | 0.04 | 75 | |
| 20260510052456 | 60 | 265 | 5.2 | 7.0 | 0.12 | 0.03 | 0.03 | 73 | |
| 20260510051952 | 61 | 153 | 3.5 | 6.1 | 0.05 | 0.02 | 0.02 | 69 | |
| 20260510051448 | 61 | 272 | 2.6 | 9.6 | 0.07 | 0.01 | 0.01 | 68 | |
| 20260510050944 | 62 | 229 | 3.5 | 11.3 | 0.07 | 0.01 | 0.01 | 62 | |
| 20260510050442 | 63 | 80 | 3.5 | 7.0 | 0.00 | 0.00 | 0.00 | 55 | |
| 20260510045939 | 65 | 187 | 3.5 | 8.7 | 0.00 | 0.01 | 0.01 | 54 | |
| 20260510045436 | 64 | 163 | 4.3 | 7.0 | 0.00 | 0.01 | 0.01 | 52 | |
| 20260510044933 | 64 | 304 | 6.1 | 8.7 | 0.00 | 0.01 | 0.01 | 56 | |
| 20260510044430 | 64 | 13 | 7.8 | 11.3 | 0.00 | 0.01 | 0.01 | 62 | |
| 20260510043926 | 64 | 13 | 7.8 | 9.6 | 0.00 | 0.01 | 0.01 | 60 | |
| 20260510043422 | 64 | 17 | 10.4 | 13.0 | 0.00 | 0.01 | 0.01 | 59 | |
| 20260510042921 | 64 | 21 | 9.6 | 13.9 | 0.00 | 0.01 | 0.01 | 58 | |
| 20260510042416 | 65 | 3 | 11.3 | 13.0 | 0.00 | 0.01 | 0.01 | 56 | |
| 20260510041912 | 65 | 15 | 9.6 | 12.2 | 0.00 | 0.01 | 0.01 | 60 | |
| 20260510041409 | 65 | 20 | 9.6 | 13.0 | 0.00 | 0.01 | 0.01 | 59 | |
| 20260510040907 | 65 | 0 | 10.4 | 12.2 | 0.00 | 0.01 | 0.01 | 62 | |
| 20260510040404 | 66 | 0 | 5.2 | 8.7 | 0.00 | 0.01 | 0.01 | 65 | |
| 20260510035859 | 68 | 356 | 11.3 | 13.0 | 0.00 | 0.01 | 0.01 | 62 | |
| 20260510035355 | 69 | 209 | 3.5 | 6.1 | 0.00 | 0.01 | 0.01 | 54 | |
| 20260510034850 | 68 | 177 | 4.3 | 6.1 | 0.00 | 0.01 | 0.01 | 54 | |
| 20260510034349 | 68 | 183 | 4.3 | 7.8 | 0.00 | 0.01 | 0.01 | 54 | |
| 20260510033845 | 69 | 203 | 3.5 | 6.1 | 0.00 | 0.01 | 0.01 | 55 | |
| 20260510033342 | 69 | 195 | 7.0 | 7.8 | 0.00 | 0.01 | 0.01 | 53 | |
| 20260510032838 | 69 | 204 | 5.2 | 7.8 | 0.00 | 0.01 | 0.01 | 53 | |
| 20260510032335 | 68 | 207 | 6.1 | 7.8 | 0.00 | 0.01 | 0.01 | 54 | |
| 20260510031831 | 68 | 211 | 5.2 | 7.0 | 0.00 | 0.01 | 0.01 | 55 | |
| 20260510031327 | 68 | 205 | 6.1 | 7.8 | 0.00 | 0.01 | 0.01 | 56 | |
| 20260510030826 | 68 | 165 | 6.1 | 8.7 | 0.00 | 0.01 | 0.01 | 56 | |
| 20260510030323 | 68 | 209 | 6.1 | 7.8 | 0.00 | 0.01 | 0.01 | 58 | |
| 20260510025820 | 68 | 194 | 7.0 | 9.6 | 0.00 | 0.01 | 0.01 | 59 | |
| 20260510025318 | 68 | 221 | 3.5 | 8.7 | 0.00 | 0.01 | 0.01 | 59 | |
| 20260510024814 | 69 | 198 | 7.0 | 7.8 | 0.00 | 0.01 | 0.01 | 57 | |
| 20260510024312 | 69 | 198 | 6.1 | 7.8 | 0.00 | 0.01 | 0.01 | 57 | |
| 20260510023808 | 69 | 204 | 6.1 | 7.8 | 0.00 | 0.01 | 0.01 | 57 | |
| 20260510023304 | 69 | 205 | 5.2 | 7.8 | 0.00 | 0.01 | 0.01 | 58 | |
| 20260510022801 | 69 | 188 | 7.8 | 7.8 | 0.00 | 0.01 | 0.01 | 58 | |
| 20260510022300 | 69 | 180 | 5.2 | 7.0 | 0.00 | 0.01 | 0.01 | 57 | |
| 20260510021800 | 69 | 193 | 5.2 | 7.0 | 0.00 | 0.01 | 0.01 | 58 | |
| 20260510021258 | 69 | 137 | 6.1 | 7.0 | 0.00 | 0.01 | 0.01 | 56 | |
| 20260510020754 | 69 | 191 | 5.2 | 7.0 | 0.00 | 0.01 | 0.01 | 55 | |
| 20260510020253 | 69 | 185 | 5.2 | 7.0 | 0.00 | 0.01 | 0.01 | 53 | |
| 20260510015750 | 69 | 192 | 3.5 | 5.2 | 0.00 | 0.01 | 0.01 | 54 | |
| 20260510015247 | 69 | 193 | 3.5 | 6.1 | 0.00 | 0.01 | 0.01 | 54 | |
| 20260510014741 | 69 | 203 | 1.7 | 7.0 | 0.00 | 0.01 | 0.01 | 54 | |
| 20260510014239 | 69 | 194 | 2.6 | 3.5 | 0.00 | 0.01 | 0.01 | 55 | |
| 20260510013735 | 69 | 159 | 3.5 | 5.2 | 0.00 | 0.01 | 0.01 | 56 | |
| 20260510013230 | 69 | 175 | 3.5 | 5.2 | 0.00 | 0.01 | 0.01 | 56 | |
| 20260510012725 | 69 | 211 | 2.6 | 3.5 | 0.00 | 0.01 | 0.01 | 57 | |
| 20260510012221 | 69 | 169 | 3.5 | 3.5 | 0.00 | 0.01 | 0.01 | 57 | |
| 20260510011720 | 69 | 195 | 2.6 | 3.5 | 0.00 | 0.01 | 0.01 | 56 | |
| 20260510011216 | 69 | 195 | 3.5 | 3.5 | 0.00 | 0.01 | 0.01 | 56 | |
| 20260510010713 | 70 | 198 | 3.5 | 3.5 | 0.00 | 0.01 | 0.01 | 57 | |
| 20260510010209 | 70 | 202 | 4.3 | 6.1 | 0.00 | 0.01 | 0.01 | 57 | |
| 20260510005706 | 70 | 213 | 2.6 | 6.1 | 0.00 | 0.01 | 0.01 | 57 | |
| 20260510005203 | 70 | 172 | 1.7 | 6.1 | 0.00 | 0.01 | 0.01 | 56 | |
| 20260510004702 | 70 | 188 | 2.6 | 5.2 | 0.00 | 0.01 | 0.01 | 59 | |
| 20260510004159 | 70 | 208 | 1.7 | 3.5 | 0.00 | 0.01 | 0.01 | 62 | |
| 20260510003656 | 70 | 220 | 3.5 | 5.2 | 0.00 | 0.01 | 0.01 | 63 | |
| 20260510003152 | 71 | 210 | 3.5 | 5.2 | 0.00 | 0.01 | 0.01 | 61 | |
| 20260510002651 | 71 | 182 | 2.6 | 3.5 | 0.00 | 0.01 | 0.01 | 61 | |
| 20260510002149 | 71 | 205 | 2.6 | 3.5 | 0.00 | 0.01 | 0.01 | 60 | |
| 20260510001646 | 72 | 226 | 2.6 | 2.6 | 0.00 | 0.01 | 0.01 | 60 | |
| 20260510001144 | 72 | 221 | 3.5 | 5.2 | 0.00 | 0.01 | 0.01 | 58 | |
| 20260510000644 | 72 | 218 | 4.3 | 6.1 | 0.00 | 0.01 | 0.01 | 59 | |
| 20260510000142 | 73 | 205 | 5.2 | 6.1 | 0.00 | 0.01 | 0.01 | 57 | |
| 20260509235638 | 73 | 212 | 5.2 | 7.0 | 0.00 | 0.01 | 0.01 | 56 | |
| 20260509235135 | 73 | 235 | 5.2 | 7.0 | 0.00 | 0.01 | 0.01 | 55 | |
| 20260509234631 | 74 | 245 | 5.2 | 7.0 | 0.00 | 0.01 | 0.01 | 53 | |
| 20260509234129 | 74 | 223 | 5.2 | 7.0 | 0.00 | 0.01 | 0.01 | 53 | |
| 20260509233626 | 74 | 241 | 5.2 | 7.0 | 0.00 | 0.01 | 0.01 | 54 | |
| 20260509233124 | 74 | 234 | 5.2 | 7.0 | 0.00 | 0.01 | 0.01 | 54 | |
| 20260509232620 | 74 | 245 | 7.0 | 8.7 | 0.00 | 0.01 | 0.01 | 49 | |
| 20260509232117 | 75 | 234 | 5.2 | 7.8 | 0.00 | 0.01 | 0.01 | 51 | |
| 20260509231613 | 75 | 226 | 5.2 | 7.0 | 0.00 | 0.01 | 0.01 | 50 | |
| 20260509231111 | 75 | 243 | 6.1 | 9.6 | 0.00 | 0.01 | 0.01 | 48 | |
| 20260509230608 | 75 | 253 | 7.8 | 9.6 | 0.00 | 0.01 | 0.01 | 47 | |
| 20260509230105 | 75 | 234 | 6.1 | 8.7 | 0.00 | 0.01 | 0.01 | 48 | |
| 20260509225600 | 75 | 216 | 9.6 | 9.6 | 0.00 | 0.01 | 0.01 | 46 | |
| 20260509225056 | 75 | 253 | 9.6 | 12.2 | 0.00 | 0.01 | 0.01 | 48 | |
| 20260509224551 | 75 | 232 | 7.0 | 9.6 | 0.00 | 0.01 | 0.01 | 48 | |
| 20260509224049 | 76 | 240 | 8.7 | 9.6 | 0.00 | 0.01 | 0.01 | 48 | |
| 20260509223546 | 75 | 253 | 7.0 | 7.8 | 0.00 | 0.01 | 0.01 | 44 | |
| 20260509223043 | 76 | 253 | 7.8 | 12.2 | 0.00 | 0.01 | 0.01 | 46 | |
| 20260509222539 | 76 | 254 | 6.1 | 7.8 | 0.00 | 0.01 | 0.01 | 47 | |
| 20260509222036 | 76 | 254 | 5.2 | 8.7 | 0.00 | 0.01 | 0.01 | 48 | |
| 20260509221531 | 76 | 244 | 7.8 | 8.7 | 0.00 | 0.01 | 0.01 | 46 | |
| 20260509221027 | 76 | 186 | 7.0 | 8.7 | 0.00 | 0.01 | 0.01 | 44 | |
| 20260509220523 | 76 | 233 | 5.2 | 7.0 | 0.00 | 0.01 | 0.01 | 44 | |
| 20260509220020 | 77 | 241 | 5.2 | 7.8 | 0.00 | 0.01 | 0.01 | 43 | |
| 20260509215515 | 77 | 167 | 1.7 | 5.2 | 0.00 | 0.01 | 0.01 | 40 | |
| 20260509215013 | 76 | 196 | 4.3 | 7.8 | 0.00 | 0.01 | 0.01 | 46 | |
| 20260509214510 | 76 | 259 | 7.8 | 9.6 | 0.00 | 0.01 | 0.01 | 43 | |
| 20260509214007 | 76 | 281 | 6.1 | 9.6 | 0.00 | 0.01 | 0.01 | 43 | |
| 20260509213502 | 76 | 239 | 2.6 | 7.8 | 0.00 | 0.01 | 0.01 | 47 | |
| 20260509212959 | 76 | 258 | 3.5 | 9.6 | 0.00 | 0.01 | 0.01 | 42 | |
| 20260509212457 | 76 | 130 | 3.5 | 11.3 | 0.00 | 0.01 | 0.01 | 46 | |
| 20260509211953 | 76 | 131 | 3.5 | 8.7 | 0.00 | 0.01 | 0.01 | 45 | |
| 20260509211448 | 76 | 282 | 7.0 | 8.7 | 0.00 | 0.01 | 0.01 | 44 | |
| 20260509210946 | 75 | 235 | 6.1 | 9.6 | 0.00 | 0.01 | 0.01 | 56 | |
| 20260509210443 | 75 | 251 | 10.4 | 13.0 | 0.00 | 0.01 | 0.01 | 51 | |
| 20260509205938 | 75 | 277 | 11.3 | 12.2 | 0.00 | 0.01 | 0.01 | 53 | |
| 20260509205433 | 75 | 265 | 7.8 | 8.7 | 0.00 | 0.01 | 0.01 | 54 | |
| 20260509204929 | 75 | 269 | 10.4 | 13.0 | 0.00 | 0.01 | 0.01 | 51 | |
| 20260509204425 | 75 | 264 | 5.2 | 11.3 | 0.00 | 0.01 | 0.01 | 48 | |
| 20260509203922 | 75 | 252 | 7.0 | 11.3 | 0.00 | 0.01 | 0.01 | 51 | |
| 20260509203418 | 75 | 248 | 9.6 | 13.0 | 0.00 | 0.01 | 0.01 | 47 | |
| 20260509202916 | 75 | 296 | 3.5 | 13.9 | 0.00 | 0.01 | 0.01 | 47 | |
| 20260509202411 | 75 | 272 | 6.1 | 13.0 | 0.00 | 0.01 | 0.01 | 56 | |
| 20260509201907 | 75 | 286 | 5.2 | 9.6 | 0.00 | 0.01 | 0.01 | 58 | |
| 20260509201402 | 75 | 254 | 10.4 | 14.8 | 0.00 | 0.01 | 0.01 | 54 | |
| 20260509200900 | 74 | 248 | 4.3 | 14.8 | 0.00 | 0.01 | 0.01 | 58 | |
| 20260509200359 | 74 | 242 | 7.8 | 8.7 | 0.00 | 0.01 | 0.01 | 58 | |
| 20260509195857 | 74 | 267 | 7.8 | 11.3 | 0.00 | 0.01 | 0.01 | 59 | |
| 20260509195356 | 73 | 244 | 12.2 | 15.6 | 0.00 | 0.01 | 0.01 | 61 | |
| 20260509194856 | 73 | 262 | 11.3 | 13.9 | 0.00 | 0.01 | 0.01 | 60 | |
| 20260509194353 | 73 | 251 | 11.3 | 13.9 | 0.00 | 0.01 | 0.01 | 59 | |
| 20260509193850 | 73 | 241 | 6.1 | 9.6 | 0.00 | 0.01 | 0.01 | 54 | |
| 20260509193349 | 73 | 238 | 9.6 | 12.2 | 0.00 | 0.01 | 0.01 | 62 | |
| 20260509192846 | 73 | 233 | 12.2 | 14.8 | 0.00 | 0.01 | 0.01 | 62 | |
| 20260509192342 | 72 | 240 | 8.7 | 13.9 | 0.00 | 0.01 | 0.01 | 62 | |
| 20260509191837 | 73 | 262 | 9.6 | 11.3 | 0.00 | 0.01 | 0.01 | 65 | |
| 20260509191333 | 73 | 235 | 11.3 | 13.0 | 0.00 | 0.01 | 0.01 | 62 | |
| 20260509190830 | 73 | 259 | 13.0 | 16.5 | 0.00 | 0.01 | 0.01 | 62 | |
| 20260509190327 | 73 | 217 | 5.2 | 12.2 | 0.00 | 0.01 | 0.01 | 64 | |
| 20260509185824 | 72 | 120 | 7.8 | 13.9 | 0.00 | 0.01 | 0.01 | 62 | |
| 20260509185320 | 72 | 299 | 7.0 | 14.8 | 0.00 | 0.01 | 0.01 | 62 | |
| 20260509184818 | 72 | 253 | 11.3 | 13.9 | 0.00 | 0.01 | 0.01 | 61 | |
| 20260509184315 | 71 | 246 | 13.9 | 18.2 | 0.00 | 0.01 | 0.01 | 61 | |
| 20260509183812 | 72 | 263 | 13.0 | 16.5 | 0.00 | 0.01 | 0.01 | 63 | |
| 20260509183307 | 72 | 253 | 11.3 | 15.6 | 0.00 | 0.01 | 0.01 | 65 | |
| 20260509182802 | 71 | 259 | 7.8 | 13.9 | 0.00 | 0.01 | 0.01 | 70 | |
| 20260509182300 | 71 | 252 | 9.6 | 13.9 | 0.00 | 0.01 | 0.01 | 69 | |
| 20260509181757 | 71 | 238 | 7.8 | 14.8 | 0.00 | 0.01 | 0.01 | 68 | |
| 20260509181255 | 70 | 239 | 13.0 | 16.5 | 0.00 | 0.01 | 0.01 | 66 | |
| 20260509180752 | 70 | 263 | 12.2 | 15.6 | 0.00 | 0.01 | 0.01 | 67 | |
| 20260509180248 | 70 | 254 | 7.8 | 14.8 | 0.00 | 0.01 | 0.01 | 69 | |
| 20260509175744 | 70 | 244 | 13.0 | 18.2 | 0.00 | 0.01 | 0.01 | 67 | |
| 20260509175241 | 69 | 235 | 12.2 | 14.8 | 0.00 | 0.01 | 0.01 | 72 |